FW3309 Weather Reports


time (UTC)temp
C
wind
direction
speed
KPH
gust
KPH
rain 1hr
cm
rain 24hr
cm
rain mn
cm
humidity
%
barometer
mb
20260510163846 8 291 16.1 37.0 0.00 0.33 0.00 53 1018.5
20260510162829 8 286 14.5 30.6 0.00 0.33 0.00 56 1018.5
20260510161802 8 267 16.1 35.4 0.00 0.33 0.00 56 1018.4
20260510160751 7 259 17.7 35.4 0.00 0.33 0.00 56 1018.3
20260510154654 8 257 14.5 27.4 0.00 0.33 0.00 55 1018.1
20260510153628 8 273 14.5 29.0 0.00 0.33 0.00 55 1018.0
20260510152613 7 294 17.7 33.8 0.00 0.33 0.00 59 1017.8
20260510151541 8 255 17.7 33.8 0.00 0.33 0.00 55 1017.5
20260510150551 8 278 14.5 30.6 0.00 0.33 0.00 56 1017.3
20260510145533 8 269 11.3 25.7 0.00 0.33 0.00 59 1017.1
20260510144521 8 265 11.3 20.9 0.00 0.33 0.00 56 1017.0
20260510143537 7 283 11.3 27.4 0.00 0.33 0.00 61 1016.9
20260510142516 7 292 14.5 27.4 0.00 0.33 0.00 60 1016.8
20260510141523 7 285 12.9 25.7 0.00 0.33 0.00 61 1016.7
20260510140502 7 269 14.5 25.7 0.00 0.33 0.00 60 1016.6
20260510135507 7 285 12.9 22.5 0.00 0.33 0.00 61 1016.6
20260510134458 7 277 11.3 24.1 0.00 0.33 0.00 60 1016.4
20260510133522 7 296 11.3 24.1 0.00 0.33 0.00 62 1016.3
20260510131350 7 300 9.7 20.9 0.00 0.33 0.00 64 1016.0
20260510130408 6 273 11.3 22.5 0.00 0.33 0.00 64 1015.9
20260510125339 6 297 9.7 24.1 0.00 0.33 0.00 67 1015.8
20260510124402 6 291 9.7 24.1 0.00 0.33 0.00 67 1015.7
20260510123404 5 261 11.3 24.1 0.00 0.33 0.00 69 1015.7
20260510121151 5 286 11.3 22.5 0.00 0.33 0.00 71 1015.4
20260510120137 5 273 11.3 24.1 0.00 0.33 0.00 72 1015.2
20260510115118 5 276 12.9 24.1 0.00 0.33 0.00 72 1015.1
20260510114131 4 274 11.3 22.5 0.00 0.33 0.00 72 1015.0
20260510113107 4 258 8.0 20.9 0.00 0.33 0.00 72 1014.8
20260510112041 3 262 8.0 20.9 0.00 0.33 0.00 73 1014.6
20260510111006 3 267 9.7 20.9 0.00 0.33 0.00 73 1014.5
20260510105948 3 269 8.0 20.9 0.00 0.33 0.00 74 1014.2
20260510104944 3 273 8.0 20.9 0.00 0.33 0.00 75 1014.1
20260510103939 3 288 6.4 17.7 0.00 0.33 0.00 75 1013.9
20260510102915 2 268 4.8 16.1 0.00 0.33 0.00 75 1013.8
20260510101858 2 272 4.8 16.1 0.00 0.33 0.00 75 1013.6
20260510100908 2 280 4.8 14.5 0.00 0.33 0.00 74 1013.4
20260510095923 3 258 4.8 16.1 0.00 0.33 0.00 74 1013.3
20260510094946 3 254 4.8 16.1 0.00 0.33 0.00 73 1013.1
20260510092855 3 262 4.8 16.1 0.00 0.33 0.00 72 1012.6
20260510091825 3 275 6.4 17.7 0.00 0.33 0.00 72 1012.6
20260510090806 3 266 8.0 22.5 0.00 0.33 0.00 72 1012.5
20260510085744 3 276 9.7 20.9 0.00 0.33 0.00 71 1012.3
20260510084713 3 304 9.7 22.5 0.00 0.33 0.00 71 1012.2
20260510083646 4 265 9.7 22.5 0.00 0.33 0.00 70 1012.1
20260510082624 4 282 9.7 20.9 0.00 0.33 0.00 70 1012.0
20260510081647 4 279 11.3 25.7 0.00 0.33 0.00 70 1011.9
20260510074340 3 266 4.8 14.5 0.00 0.33 0.00 71 1011.7
20260510073307 4 263 3.2 14.5 0.00 0.33 0.00 70 1011.6
20260510071115 4 273 4.8 14.5 0.00 0.33 0.00 68 1011.1
20260510070058 5 248 4.8 16.1 0.00 0.33 0.00 67 1010.9
20260510065115 5 284 6.4 20.9 0.00 0.33 0.00 67 1010.9
20260510064047 5 238 8.0 20.9 0.00 0.33 0.00 66 1010.9
20260510063111 5 272 9.7 20.9 0.00 0.33 0.00 65 1010.8
20260510060950 5 290 11.3 22.5 0.00 0.33 0.00 64 1010.7
20260510055955 5 285 11.3 24.1 0.00 0.33 0.00 64 1010.6
20260510054958 5 288 12.9 25.7 0.00 0.33 0.00 64 1010.5
20260510053936 6 269 12.9 25.7 0.00 0.33 0.00 65 1010.5
20260510052911 5 299 12.9 30.6 0.00 0.33 0.00 64 1010.4
20260510051842 5 272 12.9 30.6 0.00 0.33 0.00 65 1010.2
20260510050848 5 286 12.9 29.0 0.00 0.33 0.00 66 1010.2
20260510043500 6 294 11.3 30.6 0.00 0.33 0.00 68 1009.7
20260510042524 6 279 14.5 30.6 0.00 0.33 0.00 68 1009.5
20260510041539 6 288 12.9 25.7 0.00 0.33 0.00 67 1009.4
20260510040523 6 292 12.9 25.7 0.00 0.33 0.00 67 1009.2
20260510035547 6 291 11.3 24.1 0.00 0.33 0.33 67 1009.1
20260510034600 6 283 12.9 27.4 0.00 0.33 0.33 66 1009.0
20260510032431 7 304 11.3 24.1 0.00 0.33 0.33 63 1008.5
20260510030251 7 290 8.0 19.3 0.00 0.33 0.33 64 1008.1
20260510024121 7 286 9.7 27.4 0.00 0.33 0.33 62 1008.0
20260510021935 7 308 9.7 29.0 0.00 0.33 0.33 59 1007.6
20260510020926 7 277 8.0 19.3 0.00 0.33 0.33 60 1007.5
20260510015948 7 290 6.4 19.3 0.00 0.33 0.33 60 1007.4
20260510013810 8 274 8.0 16.1 0.00 0.33 0.33 61 1007.0
20260510012830 8 284 6.4 19.3 0.00 0.33 0.33 61 1006.7
20260510011855 8 284 6.4 19.3 0.00 0.33 0.33 61 1006.5
20260510010855 8 280 8.0 24.1 0.00 0.33 0.33 62 1006.4
20260510004805 9 272 9.7 22.5 0.00 0.33 0.33 62 1005.9
20260510003821 9 278 9.7 22.5 0.00 0.33 0.33 63 1005.9
20260510002819 9 289 8.0 22.5 0.00 0.33 0.33 63 1005.7
20260510001816 9 298 8.0 20.9 0.00 0.33 0.33 64 1005.6
20260509235711 10 304 6.4 19.3 0.00 0.33 0.33 64 1005.1
20260509234710 10 281 6.4 19.3 0.00 0.33 0.33 64 1004.9
20260509233734 10 303 8.0 17.7 0.00 0.33 0.33 64 1004.7
20260509232718 10 288 9.7 25.7 0.00 0.33 0.33 64 1004.7
20260509231646 10 288 12.9 27.4 0.00 0.33 0.33 63 1004.3
20260509230654 11 305 11.3 33.8 0.00 0.33 0.33 64 1004.2
20260509225658 11 287 12.9 33.8 0.00 0.33 0.33 63 1003.9
20260509224706 11 269 11.3 24.1 0.00 0.33 0.33 63 1003.5
20260509222543 11 275 14.5 29.0 0.00 0.33 0.33 63 1003.2
20260509221535 12 279 17.7 37.0 0.00 0.33 0.33 61 1002.9
20260509220501 13 282 17.7 37.0 0.00 0.33 0.33 61 1002.5
20260509215446 13 281 12.9 27.4 0.00 0.33 0.33 63 1002.1
20260509214506 13 286 11.3 29.0 0.00 0.33 0.33 64 1001.9
20260509213516 13 242 12.9 30.6 0.00 0.33 0.33 65 1001.9
20260509212529 13 230 12.9 37.0 0.00 0.33 0.33 65 1001.7
20260509211549 13 278 16.1 37.0 0.00 0.33 0.33 66 1001.7
20260509210529 14 277 12.9 32.2 0.00 0.33 0.33 69 1001.5
20260509204410 13 228 12.9 32.2 0.00 0.33 0.33 79 1001.1
20260509203415 13 223 11.3 30.6 0.00 0.33 0.33 84 1001.0
20260509202358 12 236 11.3 30.6 0.00 0.33 0.33 87 1001.1
20260509201418 11 225 6.4 22.5 0.00 0.33 0.33 88 1001.1
20260509200358 11 238 8.0 40.2 0.18 0.33 0.33 86 1001.1
20260509194307 12 217 24.1 56.3 1.32 0.08 0.13 74 1001.8
20260509192108 16 202 19.3 48.3 0.00 0.00 0.00 57 1000.1
20260509191051 17 240 19.3 46.7 0.00 0.00 0.00 47 1000.2
20260509190100 17 236 17.7 46.7 0.00 0.00 0.00 45 1000.1
20260509185116 18 246 17.7 46.7 0.00 0.00 0.00 43 1000.0
20260509184126 18 240 12.9 51.5 0.00 0.00 0.00 43 999.8
20260509183117 19 174 16.1 51.5 0.00 0.00 0.00 42 1000.2
20260509182045 19 236 16.1 48.3 0.00 0.00 0.00 42 1000.1
20260509175844 18 232 12.9 41.8 0.00 0.00 0.00 47 1000.3
20260509174823 17 221 14.5 40.2 0.00 0.00 0.00 47 1000.3
20260509173811 17 219 12.9 45.1 0.00 0.00 0.00 47 1000.7
20260509172804 16 215 11.3 45.1 0.00 0.00 0.00 50 1000.7
20260509171751 16 194 11.3 51.5 0.00 0.00 0.00 52 1000.9
20260509170758 16 174 9.7 51.5 0.00 0.00 0.00 51 1001.5
20260509165740 16 179 8.0 22.5 0.00 0.00 0.00 49 1001.4